Stations météo

Publicité
New York City, ny, Etats-Unis (2074728): Température de l'air & dewpoint: 27.05.2020 20:00:00 - 02.06.2020 20:00:00 (EDT)New York City, ny, Etats-Unis (2074728): reduced air pressure: 27.05.2020 20:00:00 - 02.06.2020 20:00:00 (EDT)New York City, ny, Etats-Unis (2074728): visibility: 27.05.2020 20:00:00 - 02.06.2020 20:00:00 (EDT)New York City, ny, Etats-Unis (2074728): Quantités de précipitations: 27.05.2020 20:00:00 - 02.06.2020 20:00:00 (EDT)
Date & Time tt [°C] td [°C] ppp [hPa] vv [km] rr [mm]
02.06.2020 20:00:00 21,1 7,8 1010,7 16 -
02.06.2020 19:00:00 21,7 6,7 1010,3 16 -
02.06.2020 18:00:00 21,7 6,7 1010,3 16 -
02.06.2020 17:00:00 22,2 5,6 1011,2 16 -
02.06.2020 16:00:00 21,7 6,1 1012,2 16 -
02.06.2020 15:00:00 21,7 6,7 1013,4 16 -
02.06.2020 14:00:00 21,7 6,1 1014,3 16 -
02.06.2020 13:00:00 21,1 7,2 1015,4 16 -
02.06.2020 12:00:00 20,6 7,2 1016,3 16 -
02.06.2020 11:00:00 20,0 7,2 1016,5 16 -
02.06.2020 10:00:00 18,9 6,7 1017,3 16 -
02.06.2020 09:00:00 17,8 7,2 1017,6 16 -
02.06.2020 08:00:00 17,2 5,6 1017,8 16 -
02.06.2020 07:00:00 16,1 5,6 1018,2 16 -
02.06.2020 06:00:00 16,1 3,9 1018,2 16 -
02.06.2020 05:00:00 15,0 6,1 1018,0 16 -
02.06.2020 04:00:00 15,6 6,1 1017,8 16 -
02.06.2020 03:00:00 15,6 6,1 1018,0 16 -
02.06.2020 02:00:00 16,1 3,9 1018,4 16 -
02.06.2020 01:00:00 15,6 2,8 1018,7 16 -
02.06.2020 00:00:00 16,1 3,9 1019,2 16 -
01.06.2020 23:00:00 16,7 5,0 1019,3 16 -
01.06.2020 22:00:00 17,2 2,8 1019,3 16 -
01.06.2020 21:00:00 18,9 1,7 1018,9 16 -
01.06.2020 20:00:00 20,0 1,7 1018,9 16 -
01.06.2020 19:00:00 20,0 1,7 1018,6 16 -
01.06.2020 18:00:00 20,6 1,1 1017,9 16 -
01.06.2020 17:00:00 20,6 1,1 1018,8 16 -
01.06.2020 16:00:00 20,6 1,1 1019,0 16 -
01.06.2020 15:00:00 19,4 3,3 1019,9 16 -
01.06.2020 14:00:00 20,0 2,8 1020,6 16 -
01.06.2020 13:00:00 17,2 2,8 1021,5 16 -
01.06.2020 12:00:00 17,8 2,8 1022,6 16 -
01.06.2020 11:00:00 16,7 2,8 1023,7 16 -
01.06.2020 10:00:00 15,0 1,7 1024,3 16 -
01.06.2020 09:00:00 13,3 2,2 1024,7 16 -
01.06.2020 08:00:00 12,2 1,7 1024,4 16 -
01.06.2020 07:00:00 11,1 1,7 1024,1 16 -
01.06.2020 06:00:00 11,1 1,1 1023,4 16 -
01.06.2020 05:00:00 11,1 1,1 1022,8 16 -
01.06.2020 04:00:00 11,7 0,6 1022,5 16 -
01.06.2020 03:00:00 12,2 0,0 1022,6 16 -
01.06.2020 02:00:00 12,8 0,6 1022,4 16 -
01.06.2020 01:00:00 13,3 0,0 1022,3 16 -
01.06.2020 00:00:00 13,9 0,6 1022,3 16 -
31.05.2020 23:00:00 15,0 0,0 1021,8 16 -
31.05.2020 22:00:00 16,1 -0,6 1020,9 16 -
31.05.2020 21:00:00 17,2 -0,6 1019,7 16 -
31.05.2020 20:00:00 25,6 6,7 1011,1 16 -
31.05.2020 19:00:00 18,3 -1,1 1018,2 16 -
31.05.2020 18:00:00 19,4 -0,6 1017,9 16 -
31.05.2020 17:00:00 20,0 0,0 1017,9 16 -
31.05.2020 16:00:00 20,0 0,6 1017,5 16 -
31.05.2020 15:00:00 20,6 1,1 1017,2 16 -
31.05.2020 14:00:00 20,0 0,0 1017,1 16 -
31.05.2020 13:00:00 20,0 0,6 1017,7 16 -
31.05.2020 12:00:00 18,3 0,6 1018,2 16 -
31.05.2020 11:00:00 16,7 1,7 1018,5 16 -
31.05.2020 10:00:00 15,6 1,7 1018,5 16 -
31.05.2020 09:00:00 14,4 3,3 1018,3 16 -
31.05.2020 08:00:00 13,3 4,4 1018,1 16 -
31.05.2020 07:00:00 13,3 3,9 1017,5 16 -
31.05.2020 06:00:00 13,9 4,4 1016,6 16 -
31.05.2020 05:00:00 14,4 4,4 1015,9 16 -
31.05.2020 04:00:00 16,1 3,9 1015,0 16 -
31.05.2020 03:00:00 17,2 7,8 1014,3 16 -
31.05.2020 02:00:00 18,3 7,8 1014,0 16 -
31.05.2020 01:00:00 20,0 8,3 1013,5 16 -
31.05.2020 00:00:00 21,1 10,0 1013,4 16 -
30.05.2020 23:00:00 22,8 10,0 1012,5 16 -
30.05.2020 22:00:00 23,9 9,4 1012,4 16 -
30.05.2020 21:00:00 24,4 8,9 1011,8 16 -
30.05.2020 20:00:00 25,6 6,7 1011,1 16 -
30.05.2020 19:00:00 24,4 8,3 1010,9 16 -
30.05.2020 18:00:00 26,7 7,8 1010,6 16 -
30.05.2020 17:00:00 26,7 8,9 1011,0 16 -
30.05.2020 16:00:00 26,7 8,9 1010,8 16 -
30.05.2020 15:00:00 26,1 9,4 1011,0 16 -
30.05.2020 14:00:00 25,6 11,1 1011,4 16 -
30.05.2020 13:00:00 25,0 10,6 1012,2 16 -
30.05.2020 12:00:00 23,3 11,1 1012,7 16 -
30.05.2020 11:00:00 22,2 12,8 1012,8 16 -
30.05.2020 10:00:00 21,1 13,3 1013,0 16 -
30.05.2020 09:00:00 20,6 14,4 1012,8 16 -
30.05.2020 08:00:00 20,6 17,2 1012,3 16 -
30.05.2020 07:00:00 19,4 17,8 1011,9 16 -
30.05.2020 06:00:00 19,4 18,3 1011,2 16 -
30.05.2020 05:00:00 20,0 18,9 1010,9 16 0,0
30.05.2020 04:00:00 20,0 18,9 1011,0 16 -
30.05.2020 03:00:00 20,0 18,9 1010,9 11 0,5
30.05.2020 02:00:00 20,6 18,9 1012,0 13 0,5
30.05.2020 01:00:00 20,0 18,9 1011,4 16 -
30.05.2020 00:00:00 19,4 17,8 1012,0 16 -
29.05.2020 23:00:00 20,0 18,3 1011,6 15 0,3
29.05.2020 22:00:00 20,6 19,4 1012,3 13 -
29.05.2020 21:00:00 21,1 20,0 1012,2 16 0,5
29.05.2020 20:00:00 23,9 19,4 1012,7 16 -
29.05.2020 19:00:00 25,6 19,4 1011,9 16 -
29.05.2020 18:00:00 26,1 20,0 1011,8 16 -
29.05.2020 17:00:00 26,7 20,0 1011,9 16 -
29.05.2020 16:00:00 26,1 20,0 1012,6 16 -
29.05.2020 15:00:00 26,1 19,4 1013,8 16 -
29.05.2020 14:00:00 27,2 20,0 1014,5 16 -
29.05.2020 13:00:00 25,6 20,0 1015,2 16 -
29.05.2020 12:00:00 25,0 20,0 1016,1 16 -
29.05.2020 11:00:00 23,9 21,1 1016,7 16 -
29.05.2020 10:00:00 23,9 20,6 1017,0 16 -
29.05.2020 09:00:00 22,2 20,0 1017,3 16 -
29.05.2020 08:00:00 21,7 19,4 1017,5 16 -
29.05.2020 07:00:00 20,6 18,9 1017,6 16 -
29.05.2020 06:00:00 20,0 18,9 1017,3 16 -
29.05.2020 05:00:00 20,0 18,9 1017,4 - -
29.05.2020 04:00:00 19,4 18,3 1017,7 - -
29.05.2020 03:00:00 19,4 17,8 1017,8 11 -
29.05.2020 02:00:00 19,4 18,3 1017,7 13 -
29.05.2020 01:00:00 19,4 18,3 1018,1 15 -
29.05.2020 00:00:00 18,9 17,8 1018,1 13 -
28.05.2020 23:00:00 18,9 17,8 1018,2 11 -
28.05.2020 22:00:00 19,4 17,8 1018,7 15 -
28.05.2020 21:00:00 19,4 18,3 1018,7 15 -
28.05.2020 20:00:00 20,0 18,9 1018,6 13 -
28.05.2020 19:00:00 21,1 18,9 1018,6 13 -
28.05.2020 18:00:00 22,2 18,9 1018,9 16 -
28.05.2020 17:00:00 21,7 18,9 1019,5 15 -
28.05.2020 16:00:00 22,8 19,4 1019,7 16 -
28.05.2020 15:00:00 23,3 19,4 1020,1 16 0,0
28.05.2020 14:00:00 23,3 19,4 1020,5 13 -
28.05.2020 13:00:00 23,9 19,4 1021,2 16 -
28.05.2020 12:00:00 23,3 18,9 1021,6 16 -
28.05.2020 11:00:00 22,2 18,9 1021,9 16 -
28.05.2020 10:00:00 21,1 18,3 1022,4 16 -
28.05.2020 09:00:00 20,6 18,3 1022,9 15 -
28.05.2020 08:00:00 20,0 17,8 1022,8 13 -
28.05.2020 07:00:00 18,9 17,8 1022,7 - -
28.05.2020 06:00:00 18,9 17,8 1022,6 15 -
28.05.2020 05:00:00 18,9 16,7 1022,5 16 -
28.05.2020 04:00:00 18,3 16,7 1022,6 16 -
28.05.2020 03:00:00 17,8 16,1 1022,9 15 -
28.05.2020 02:00:00 17,8 16,7 1023,0 16 -
28.05.2020 01:00:00 17,2 16,1 1023,3 16 -
28.05.2020 00:00:00 17,8 16,1 1023,4 16 -
27.05.2020 23:00:00 17,8 16,1 1023,1 16 -
27.05.2020 22:00:00 17,8 15,6 1023,0 16 -
27.05.2020 21:00:00 17,8 15,6 1022,6 16 -
27.05.2020 20:00:00 18,3 15,6 1022,7 16 -

tt = Température de l'air
td = dewpoint
ppp = reduced air pressure
vv = visibility
rr = Quantités de précipitations

stations d'obs. à proximité